Date,Time,Wetness (Wet Dry or Ice),Wind Speed (m/s),Temperature (C),Humidity (%),Pressure (mb),Radiation (W/m^2)
2024-02-15,03:45:00,DRY,1.65,5.70,94.5,774.00,0.0
2024-02-15,03:50:00,DRY,1.23,5.70,93.3,774.00,0.0
2024-02-15,03:55:00,DRY,1.95,5.60,92.0,774.00,0.0
2024-02-15,04:00:00,DRY,2.03,5.60,93.7,774.00,0.0
2024-02-15,04:05:00,DRY,2.10,5.50,94.5,774.00,0.0
2024-02-15,04:10:00,DRY,0.93,5.50,95.3,774.00,0.0
2024-02-15,04:15:00,DRY,2.45,5.50,96.5,774.00,0.0
2024-02-15,04:20:00,DRY,1.33,5.40,97.7,774.00,0.0
2024-02-15,04:25:00,DRY,1.45,5.30,99.0,774.00,0.0
2024-02-15,04:30:00,DRY,1.43,5.33,97.7,774.00,0.0
2024-02-15,04:35:00,DRY,1.05,5.50,95.5,774.00,0.0
2024-02-15,04:40:00,DRY,2.53,5.53,95.3,774.00,0.0
2024-02-15,04:45:00,DRY,2.25,5.50,97.0,774.00,0.0
2024-02-15,04:50:00,DRY,3.10,5.40,98.0,774.00,0.0
2024-02-15,04:55:00,DRY,2.95,5.45,95.5,774.00,0.0
2024-02-15,05:00:00,DRY,3.53,5.77,76.3,774.00,0.0
2024-02-15,05:05:00,DRY,2.35,6.25,62.0,774.00,0.0
2024-02-15,05:10:00,DRY,1.33,6.20,73.7,774.00,0.0
2024-02-15,05:15:00,DRY,1.50,5.80,89.5,774.00,0.0
2024-02-15,05:20:00,DRY,1.70,5.53,86.7,774.00,0.0
2024-02-15,05:25:00,DRY,1.40,5.55,80.0,774.00,0.0
2024-02-15,05:30:00,DRY,1.07,5.50,85.3,774.00,0.0
2024-02-15,05:35:00,DRY,3.35,5.75,64.5,774.00,0.0
2024-02-15,05:40:00,DRY,3.50,6.20,56.3,774.00,0.0
2024-02-15,05:45:00,DRY,4.15,6.25,59.5,774.00,0.0
2024-02-15,05:50:00,DRY,2.90,6.17,66.0,774.00,0.0
2024-02-15,05:55:00,DRY,2.65,5.90,65.5,774.00,0.0
2024-02-15,06:00:00,DRY,2.90,5.70,52.7,774.00,0.0
2024-02-15,06:05:00,DRY,2.85,5.60,46.0,774.00,0.0
2024-02-15,06:10:00,DRY,2.33,5.57,34.3,774.00,0.0
2024-02-15,06:15:00,DRY,3.00,5.80,25.5,774.00,0.0
2024-02-15,06:20:00,DRY,3.60,6.10,28.7,774.00,0.0
2024-02-15,06:25:00,DRY,2.90,6.10,33.5,774.00,0.0
2024-02-15,06:30:00,DRY,1.47,6.13,30.3,774.00,0.0
2024-02-15,06:35:00,DRY,1.40,6.15,28.5,774.00,0.0
2024-02-15,06:40:00,DRY,1.70,6.27,35.7,774.00,0.0
2024-02-15,06:45:00,DRY,2.45,6.35,45.0,774.00,0.0
2024-02-15,06:50:00,DRY,3.00,6.47,51.7,774.00,0.0
2024-02-15,06:55:00,DRY,1.45,6.55,52.0,774.00,0.0
2024-02-15,07:00:00,DRY,2.33,6.47,53.3,774.00,0.0
2024-02-15,07:05:00,DRY,2.65,6.35,54.5,775.00,0.0
2024-02-15,07:10:00,DRY,2.20,6.27,56.0,775.00,0.0
2024-02-15,07:15:00,DRY,1.40,6.20,56.0,775.00,0.0
2024-02-15,07:20:00,DRY,2.37,6.17,55.7,775.00,0.0
2024-02-15,07:25:00,DRY,1.80,6.05,56.0,775.00,0.0
2024-02-15,07:30:00,DRY,2.10,6.03,57.0,775.00,0.0
2024-02-15,07:35:00,DRY,1.65,6.00,58.0,775.00,0.0
2024-02-15,07:40:00,DRY,2.43,6.07,58.0,775.00,0.0
2024-02-15,07:45:00,DRY,1.95,6.15,57.5,775.00,0.0
2024-02-15,07:50:00,DRY,1.67,6.07,56.0,775.00,0.0
2024-02-15,07:55:00,DRY,0.60,5.85,54.0,775.00,0.5
2024-02-15,08:00:00,DRY,2.57,5.57,53.0,775.00,6.3
2024-02-15,08:05:00,DRY,2.65,5.95,49.5,775.00,11.0
2024-02-15,08:10:00,DRY,3.53,6.13,46.7,775.00,14.3
2024-02-15,08:15:00,DRY,3.05,6.30,43.5,775.00,17.5
2024-02-15,08:20:00,DRY,3.63,6.60,42.0,775.00,19.7
2024-02-15,08:25:00,DRY,2.90,6.70,41.0,775.00,21.5
2024-02-15,08:30:00,DRY,3.60,7.00,33.0,775.00,116.3
2024-02-15,08:35:00,DRY,2.85,7.65,22.0,775.00,163.0
2024-02-15,08:40:00,DRY,2.40,8.27,20.0,775.67,182.3
2024-02-15,08:45:00,DRY,2.00,8.25,20.5,776.00,202.0
2024-02-15,08:50:00,DRY,1.13,7.80,23.7,776.00,221.0
2024-02-15,08:55:00,DRY,2.50,7.40,27.5,776.00,244.0
2024-02-15,09:00:00,DRY,1.43,7.63,24.3,776.00,263.3
2024-02-15,09:05:00,DRY,1.90,7.75,23.0,776.00,285.0
2024-02-15,09:10:00,DRY,2.90,7.70,25.0,776.00,306.0
2024-02-15,09:15:00,DRY,3.85,7.60,26.5,776.00,328.5
2024-02-15,09:20:00,DRY,2.63,7.83,23.7,776.00,346.7
2024-02-15,09:25:00,DRY,3.20,8.35,21.5,776.00,359.5
2024-02-15,09:30:00,DRY,2.27,8.47,21.0,776.00,388.3
2024-02-15,09:35:00,DRY,3.00,8.60,21.0,776.00,409.0
2024-02-15,09:40:00,DRY,2.40,8.43,21.3,776.00,429.0
2024-02-15,09:45:00,DRY,2.20,8.40,21.0,776.00,448.5
2024-02-15,09:50:00,DRY,1.80,8.50,22.0,776.00,470.7
2024-02-15,09:55:00,DRY,1.90,8.70,21.0,776.50,496.0
2024-02-15,10:00:00,DRY,2.33,8.90,20.3,777.00,523.0
2024-02-15,10:05:00,DRY,2.10,9.00,20.5,777.00,547.5
2024-02-15,10:10:00,DRY,1.67,9.07,22.3,777.00,538.3
2024-02-15,10:15:00,DRY,2.25,9.05,22.5,777.00,491.5
2024-02-15,10:20:00,DRY,1.73,9.00,23.3,777.00,537.7
2024-02-15,10:25:00,DRY,1.50,9.15,23.0,777.00,595.5
2024-02-15,10:30:00,DRY,1.80,9.47,22.3,777.00,609.0
2024-02-15,10:35:00,DRY,2.40,9.85,20.0,777.00,624.5
2024-02-15,10:40:00,DRY,1.70,10.03,18.7,777.00,639.7
2024-02-15,10:45:00,DRY,1.45,10.25,20.0,777.00,652.0
2024-02-15,10:50:00,DRY,1.47,10.40,19.7,777.00,667.0
2024-02-15,10:55:00,DRY,2.45,10.65,21.0,777.00,679.5
2024-02-15,11:00:00,DRY,1.53,10.77,18.7,777.00,695.0
2024-02-15,11:05:00,DRY,1.70,10.95,19.0,777.00,709.0
2024-02-15,11:10:00,DRY,2.17,11.00,18.7,777.00,722.3
2024-02-15,11:15:00,DRY,1.35,11.00,18.5,777.00,734.5
2024-02-15,11:20:00,DRY,1.63,11.07,19.0,777.00,745.0
2024-02-15,11:25:00,DRY,0.70,11.00,25.0,777.00,754.5
2024-02-15,11:30:00,,,,,,
2024-02-15,11:35:00,,,,,,
2024-02-15,11:40:00,,,,,,
2024-02-15,11:45:00,,,,,,
2024-02-15,11:50:00,,,,,,
2024-02-15,11:55:00,DRY,1.60,11.60,23.0,777.00,798.0
2024-02-15,12:00:00,DRY,2.07,11.83,23.7,777.00,798.0
2024-02-15,12:05:00,DRY,1.85,12.20,26.5,777.00,798.0
2024-02-15,12:10:00,DRY,1.63,12.27,29.3,777.00,798.0
2024-02-15,12:15:00,DRY,1.00,11.95,30.5,777.00,798.0
2024-02-15,12:20:00,DRY,1.33,12.03,30.7,777.00,798.0
2024-02-15,12:25:00,DRY,1.50,12.10,33.0,777.00,798.0
2024-02-15,12:30:00,DRY,2.03,12.20,33.7,777.00,798.0
2024-02-15,12:35:00,DRY,2.05,12.10,30.5,777.00,798.0
2024-02-15,12:40:00,DRY,1.53,12.07,33.0,777.00,798.0
2024-02-15,12:45:00,DRY,1.45,12.25,40.0,777.00,798.0
2024-02-15,12:50:00,DRY,1.30,12.53,41.7,777.00,798.0
2024-02-15,12:55:00,DRY,2.15,12.40,43.5,777.00,798.0
2024-02-15,13:00:00,DRY,1.50,12.10,39.3,777.00,798.0
2024-02-15,13:05:00,DRY,0.95,11.60,50.5,777.00,798.0
2024-02-15,13:10:00,DRY,1.30,11.73,53.7,777.00,798.0
2024-02-15,13:15:00,DRY,1.75,11.95,40.5,777.00,798.0
2024-02-15,13:20:00,DRY,2.77,11.93,31.7,777.00,798.0
2024-02-15,13:25:00,DRY,2.75,12.10,27.0,777.00,798.0
2024-02-15,13:30:00,DRY,1.80,12.60,21.0,777.00,798.0
2024-02-15,13:35:00,DRY,1.30,12.70,28.0,776.00,798.0
2024-02-15,13:40:00,DRY,1.07,12.70,30.7,776.67,798.0
2024-02-15,13:45:00,DRY,1.50,12.75,38.0,776.50,798.0
2024-02-15,13:50:00,DRY,1.50,12.37,46.0,776.33,798.0
2024-02-15,13:55:00,DRY,2.25,12.45,41.5,777.00,798.0
2024-02-15,14:00:00,DRY,2.57,12.40,40.3,776.00,798.0
2024-02-15,14:05:00,DRY,2.30,12.80,39.0,776.00,798.0
2024-02-15,14:10:00,DRY,1.40,13.45,42.0,776.00,798.0
2024-02-15,14:15:00,DRY,1.50,13.80,44.0,776.00,798.0
2024-02-15,14:20:00,DRY,1.95,14.15,45.0,776.00,798.0
2024-02-15,14:25:00,DRY,2.50,14.00,38.5,776.00,798.0
2024-02-15,14:30:00,DRY,2.30,13.67,35.3,776.00,798.0
2024-02-15,14:35:00,DRY,3.70,14.10,25.0,776.00,798.0
2024-02-15,14:40:00,DRY,3.27,14.37,20.7,776.00,798.0
2024-02-15,14:45:00,DRY,1.35,14.70,22.5,776.00,798.0
2024-02-15,14:50:00,DRY,1.70,14.70,21.0,776.00,798.0
2024-02-15,14:55:00,DRY,1.75,14.70,20.0,776.00,794.5
2024-02-15,15:00:00,DRY,2.37,14.70,19.0,776.00,781.0
2024-02-15,15:05:00,DRY,0.75,14.25,21.5,776.00,774.5
2024-02-15,15:10:00,DRY,1.67,14.43,28.0,776.00,762.0
2024-02-15,15:15:00,DRY,1.55,14.60,30.5,776.00,751.0
2024-02-15,15:20:00,DRY,2.17,14.53,28.0,776.00,741.7
2024-02-15,15:25:00,DRY,2.35,14.70,27.5,776.50,727.0
2024-02-15,15:30:00,DRY,1.67,14.07,31.3,776.00,702.0
2024-02-15,15:35:00,DRY,1.65,14.10,31.5,776.00,685.0
2024-02-15,15:40:00,DRY,1.30,14.30,27.7,776.00,686.3
2024-02-15,15:45:00,DRY,1.65,14.30,23.0,776.00,680.0
2024-02-15,15:50:00,DRY,1.53,14.53,15.0,776.67,664.0
2024-02-15,15:55:00,DRY,1.40,14.70,16.5,776.00,642.0
2024-02-15,16:00:00,DRY,1.40,14.53,22.3,776.00,611.3
2024-02-15,16:05:00,DRY,1.45,14.05,36.5,776.00,531.0
2024-02-15,16:10:00,DRY,1.57,14.00,26.7,776.00,545.3
2024-02-15,16:15:00,DRY,1.00,14.15,27.5,776.00,565.5
2024-02-15,16:20:00,DRY,1.10,13.63,40.0,776.00,486.7
2024-02-15,16:25:00,DRY,1.75,13.50,51.5,776.00,467.5
2024-02-15,16:30:00,DRY,1.60,13.57,39.3,776.00,543.7
2024-02-15,16:35:00,DRY,2.35,13.85,30.0,776.00,543.0
2024-02-15,16:40:00,DRY,1.67,13.80,30.7,776.00,519.3
2024-02-15,16:45:00,DRY,1.70,13.50,37.0,776.00,496.5
2024-02-15,16:50:00,DRY,1.70,13.77,36.3,776.00,474.3
2024-02-15,16:55:00,DRY,1.95,13.60,25.0,776.50,346.0
2024-02-15,17:00:00,DRY,0.97,13.73,24.0,776.00,424.7
2024-02-15,17:05:00,DRY,0.85,14.05,27.5,776.50,410.0
2024-02-15,17:10:00,DRY,1.20,13.83,27.0,776.67,352.3
2024-02-15,17:15:00,DRY,1.10,13.60,24.0,776.50,254.5
2024-02-15,17:20:00,DRY,1.23,13.33,20.3,776.67,244.0
2024-02-15,17:25:00,DRY,1.05,12.75,33.5,776.00,257.0
2024-02-15,17:30:00,DRY,0.97,12.77,29.3,777.00,278.7
2024-02-15,17:35:00,DRY,1.30,13.10,22.5,777.00,267.5
2024-02-15,17:40:00,DRY,0.97,13.20,15.0,777.00,237.0
2024-02-15,17:45:00,DRY,0.80,12.85,15.5,777.00,214.5
2024-02-15,17:50:00,DRY,0.67,13.00,23.0,777.00,227.3
2024-02-15,17:55:00,DRY,0.95,13.20,23.0,777.00,223.5
2024-02-15,18:00:00,DRY,0.60,13.10,16.3,777.00,201.3
2024-02-15,18:05:00,DRY,1.10,13.20,13.0,777.00,179.0
2024-02-15,18:10:00,DRY,0.80,13.17,10.7,777.00,153.7
2024-02-15,18:15:00,DRY,1.00,13.10,11.0,777.00,133.0
2024-02-15,18:20:00,DRY,0.50,12.90,12.3,777.00,110.0
2024-02-15,18:25:00,DRY,1.35,12.70,14.0,777.00,80.0
2024-02-15,18:30:00,DRY,0.90,12.30,9.7,777.00,41.3
2024-02-15,18:35:00,DRY,0.40,12.05,8.5,777.00,48.5
2024-02-15,18:40:00,DRY,0.67,12.37,7.7,777.00,29.3
2024-02-15,18:45:00,DRY,0.80,12.55,6.5,777.00,20.0
2024-02-15,18:50:00,DRY,0.77,12.47,6.7,777.00,10.0
2024-02-15,18:55:00,DRY,0.80,12.15,5.0,777.00,7.0
2024-02-15,19:00:00,DRY,0.13,11.70,6.0,777.00,0.3
2024-02-15,19:05:00,DRY,1.20,11.40,6.5,777.00,0.0
2024-02-15,19:10:00,DRY,1.13,10.80,5.3,777.00,0.0
2024-02-15,19:15:00,DRY,0.75,10.65,5.0,777.00,0.0
2024-02-15,19:20:00,DRY,1.10,10.50,4.3,777.00,0.0
2024-02-15,19:25:00,DRY,0.65,10.40,4.0,777.00,0.0
2024-02-15,19:30:00,DRY,0.77,10.30,4.0,777.00,0.0
2024-02-15,19:35:00,DRY,0.75,10.30,4.0,777.00,0.0
2024-02-15,19:40:00,DRY,0.80,10.20,3.7,777.00,0.0
2024-02-15,19:45:00,DRY,0.70,10.20,3.5,777.00,0.0
2024-02-15,19:50:00,DRY,0.97,10.27,3.3,777.00,0.0
2024-02-15,19:55:00,DRY,0.75,10.20,3.0,777.00,0.0
2024-02-15,20:00:00,DRY,0.80,10.20,3.0,777.00,0.0
2024-02-15,20:05:00,DRY,0.55,10.35,3.0,777.00,0.0
2024-02-15,20:10:00,DRY,0.65,10.35,3.0,777.00,0.0
2024-02-15,20:15:00,DRY,1.15,10.35,3.5,777.00,0.0
2024-02-15,20:20:00,DRY,1.23,10.57,4.0,777.33,0.0
2024-02-15,20:25:00,DRY,1.35,10.55,4.0,777.00,0.0
2024-02-15,20:30:00,DRY,1.27,10.53,3.7,777.00,0.0
2024-02-15,20:35:00,DRY,1.05,10.60,3.0,777.00,0.0
2024-02-15,20:40:00,DRY,1.47,10.60,4.0,778.00,0.0
2024-02-15,20:45:00,DRY,0.85,10.60,3.5,778.00,0.0
2024-02-15,20:50:00,DRY,1.13,10.57,3.7,778.00,0.0
2024-02-15,20:55:00,DRY,0.90,10.40,4.0,778.00,0.0
2024-02-15,21:00:00,DRY,0.85,10.40,4.0,778.00,0.0
2024-02-15,21:05:00,DRY,1.05,10.65,3.0,778.00,0.0
2024-02-15,21:10:00,DRY,0.57,10.70,3.3,778.00,0.0
2024-02-15,21:15:00,DRY,0.25,10.45,3.5,778.00,0.0
2024-02-15,21:20:00,DRY,0.97,10.37,3.0,778.00,0.0
2024-02-15,21:25:00,DRY,0.95,10.50,3.0,778.00,0.0
2024-02-15,21:30:00,DRY,0.95,10.55,3.0,778.00,0.0
2024-02-15,21:35:00,DRY,1.20,10.60,3.0,778.00,0.0
2024-02-15,21:40:00,DRY,0.87,10.57,3.0,778.00,0.0
2024-02-15,21:45:00,DRY,0.70,10.50,3.0,778.00,0.0
2024-02-15,21:50:00,DRY,1.13,10.40,3.0,778.00,0.0
2024-02-15,21:55:00,DRY,1.90,10.35,4.0,778.00,0.0
2024-02-15,22:00:00,DRY,2.13,10.03,4.0,778.00,0.0
2024-02-15,22:05:00,DRY,1.90,9.90,4.0,778.00,0.0
2024-02-15,22:10:00,DRY,1.80,9.80,4.0,778.00,0.0
2024-02-15,22:15:00,DRY,1.40,9.80,4.0,778.00,0.0
2024-02-15,22:20:00,DRY,1.77,9.97,4.0,778.00,0.0
2024-02-15,22:25:00,DRY,2.05,9.90,4.0,778.00,0.0
2024-02-15,22:30:00,DRY,2.00,9.80,4.7,778.00,0.0
2024-02-15,22:35:00,DRY,1.65,10.00,4.0,778.00,0.0
2024-02-15,22:40:00,DRY,2.50,10.03,4.0,778.00,0.0
2024-02-15,22:45:00,DRY,3.05,9.95,4.0,778.00,0.0
2024-02-15,22:50:00,DRY,2.27,9.77,4.0,778.00,0.0
2024-02-15,22:55:00,DRY,2.10,9.35,4.5,778.00,0.0
2024-02-15,23:00:00,DRY,1.93,9.53,4.0,778.00,0.0
2024-02-15,23:05:00,DRY,2.60,9.20,5.0,778.00,0.0
2024-02-15,23:10:00,DRY,2.70,9.30,5.0,778.00,0.0
2024-02-15,23:15:00,DRY,2.20,9.20,6.0,778.00,0.0
2024-02-15,23:20:00,DRY,3.17,9.07,5.7,778.00,0.0
2024-02-15,23:25:00,DRY,3.35,9.35,5.0,778.00,0.0
2024-02-15,23:30:00,DRY,2.57,9.50,5.3,778.00,0.0
2024-02-15,23:35:00,DRY,2.15,9.40,5.0,778.00,0.0
2024-02-15,23:40:00,DRY,2.80,9.47,5.0,778.00,0.0
2024-02-15,23:45:00,DRY,2.60,9.20,5.5,778.00,0.0
2024-02-15,23:50:00,DRY,2.50,9.37,5.0,778.00,0.0
2024-02-15,23:55:00,DRY,2.65,9.10,6.0,778.00,0.0
2024-02-16,00:00:00,DRY,2.73,9.13,5.0,778.00,0.0
2024-02-16,00:05:00,DRY,2.25,9.40,4.5,778.00,0.0
2024-02-16,00:10:00,DRY,2.73,9.37,5.0,778.00,0.0
2024-02-16,00:15:00,DRY,2.50,9.25,5.5,778.00,0.0
2024-02-16,00:20:00,DRY,2.23,9.20,5.3,778.00,0.0
2024-02-16,00:25:00,DRY,3.10,8.70,6.0,778.00,0.0
2024-02-16,00:30:00,DRY,2.63,8.80,5.3,778.00,0.0
2024-02-16,00:35:00,DRY,3.35,8.45,6.5,778.00,0.0
2024-02-16,00:40:00,DRY,2.57,8.40,6.3,778.00,0.0
2024-02-16,00:45:00,DRY,3.40,8.50,6.0,778.00,0.0
2024-02-16,00:50:00,DRY,2.83,8.93,5.0,778.00,0.0
2024-02-16,00:55:00,DRY,2.60,9.25,4.0,778.00,0.0
2024-02-16,01:00:00,DRY,2.77,8.90,5.0,778.00,0.0
2024-02-16,01:05:00,DRY,2.60,8.75,5.0,778.00,0.0
2024-02-16,01:10:00,DRY,3.00,8.90,5.0,778.00,0.0
2024-02-16,01:15:00,DRY,2.80,8.80,5.5,778.00,0.0
2024-02-16,01:20:00,DRY,2.97,8.93,5.0,778.00,0.0
2024-02-16,01:25:00,DRY,3.20,9.05,5.0,778.00,0.0
2024-02-16,01:30:00,DRY,2.63,8.73,5.7,778.00,0.0
2024-02-16,01:35:00,DRY,2.75,8.80,6.0,778.00,0.0
2024-02-16,01:40:00,DRY,2.23,9.20,4.7,778.00,0.0
2024-02-16,01:45:00,DRY,2.45,9.35,4.0,778.00,0.0
2024-02-16,01:50:00,DRY,2.20,9.00,5.0,778.00,0.0
2024-02-16,01:55:00,DRY,2.50,9.30,4.0,777.50,0.0
2024-02-16,02:00:00,DRY,2.80,9.57,4.0,777.33,0.0
2024-02-16,02:05:00,DRY,2.50,9.50,5.0,777.00,0.0
2024-02-16,02:10:00,DRY,2.23,9.70,4.0,777.00,0.0
2024-02-16,02:15:00,DRY,2.25,9.50,4.0,777.00,0.0
2024-02-16,02:20:00,DRY,3.40,9.50,4.0,777.00,0.0
2024-02-16,02:25:00,DRY,3.05,9.95,4.0,777.00,0.0
2024-02-16,02:30:00,DRY,2.83,9.40,4.3,777.00,0.0
2024-02-16,02:35:00,DRY,2.95,9.05,5.0,777.00,0.0
2024-02-16,02:40:00,DRY,2.63,9.30,4.3,777.00,0.0
2024-02-16,02:45:00,DRY,2.80,9.30,4.0,777.00,0.0
2024-02-16,02:50:00,DRY,3.23,9.27,5.0,777.00,0.0
2024-02-16,02:55:00,DRY,2.95,9.35,4.0,777.00,0.0
2024-02-16,03:00:00,DRY,3.10,8.97,5.0,777.00,0.0
2024-02-16,03:05:00,DRY,3.25,8.55,6.0,777.00,0.0
2024-02-16,03:10:00,DRY,3.37,8.37,6.0,777.00,0.0
2024-02-16,03:15:00,DRY,4.10,8.70,5.0,777.00,0.0
2024-02-16,03:20:00,DRY,3.40,9.23,5.0,777.00,0.0
2024-02-16,03:25:00,DRY,5.00,9.35,4.5,777.00,0.0
2024-02-16,03:30:00,DRY,3.80,9.40,5.0,777.00,0.0
2024-02-16,03:35:00,DRY,3.80,9.05,5.0,777.00,0.0
2024-02-16,03:40:00,DRY,3.80,8.57,6.0,777.00,0.0
2024-02-16,03:45:00,DRY,3.55,8.40,6.0,777.00,0.0
2024-02-16,03:50:00,DRY,3.47,8.37,6.0,777.00,0.0
2024-02-16,03:55:00,DRY,3.55,8.80,5.0,777.00,0.0
2024-02-16,04:00:00,DRY,4.50,8.83,5.7,777.00,0.0
2024-02-16,04:05:00,DRY,5.35,9.10,5.5,777.00,0.0
2024-02-16,04:10:00,DRY,4.73,8.77,6.0,777.00,0.0
2024-02-16,04:15:00,DRY,5.75,8.80,5.5,777.00,0.0
2024-02-16,04:20:00,DRY,4.90,8.87,6.0,777.00,0.0
2024-02-16,04:25:00,DRY,4.60,8.70,6.0,777.00,0.0
2024-02-16,04:30:00,DRY,4.43,8.67,6.0,777.00,0.0
2024-02-16,04:35:00,DRY,5.10,9.10,5.0,777.00,0.0
2024-02-16,04:40:00,DRY,4.03,9.27,4.7,777.00,0.0
2024-02-16,04:45:00,DRY,4.30,8.95,5.0,777.00,0.0
2024-02-16,04:50:00,DRY,4.43,8.60,5.3,777.00,0.0
2024-02-16,04:55:00,DRY,4.75,8.40,5.0,777.00,0.0
2024-02-16,05:00:00,DRY,4.10,8.67,5.0,777.00,0.0
2024-02-16,05:05:00,DRY,3.80,8.70,5.0,777.00,0.0
2024-02-16,05:10:00,DRY,3.17,8.13,5.0,777.00,0.0
2024-02-16,05:15:00,DRY,3.40,8.10,5.0,777.00,0.0
2024-02-16,05:20:00,DRY,4.20,8.43,4.3,777.00,0.0
2024-02-16,05:25:00,DRY,5.30,9.65,3.5,777.00,0.0
2024-02-16,05:30:00,DRY,4.53,9.90,3.7,777.00,0.0
2024-02-16,05:35:00,DRY,4.30,9.50,4.0,777.00,0.0
2024-02-16,05:40:00,DRY,4.73,8.40,4.7,777.00,0.0
2024-02-16,05:45:00,DRY,5.20,9.30,3.5,777.00,0.0
2024-02-16,05:50:00,DRY,5.53,9.53,3.7,777.00,0.0
2024-02-16,05:55:00,DRY,5.55,9.50,4.0,777.00,0.0
2024-02-16,06:00:00,DRY,4.50,9.70,3.7,777.00,0.0
2024-02-16,06:05:00,DRY,4.90,8.95,4.0,777.00,0.0
2024-02-16,06:10:00,DRY,6.20,9.23,4.0,777.00,0.0
2024-02-16,06:15:00,DRY,6.00,9.30,4.0,777.00,0.0
2024-02-16,06:20:00,DRY,5.17,9.27,4.0,777.00,0.0
2024-02-16,06:25:00,DRY,4.35,9.50,4.0,777.00,0.0
2024-02-16,06:30:00,DRY,3.90,9.60,3.5,777.00,0.0
2024-02-16,06:35:00,DRY,5.40,9.60,3.5,777.00,0.0
2024-02-16,06:40:00,DRY,5.83,9.67,3.7,777.00,0.0
2024-02-16,06:45:00,DRY,5.15,9.50,4.0,777.00,0.0
2024-02-16,06:50:00,DRY,5.57,9.50,3.3,777.00,0.0
2024-02-16,06:55:00,DRY,4.95,9.70,3.0,777.00,0.0
2024-02-16,07:00:00,DRY,5.33,9.80,3.0,777.00,0.0
2024-02-16,07:05:00,DRY,6.35,9.95,3.0,777.00,0.0
2024-02-16,07:10:00,DRY,4.97,10.17,3.0,777.00,0.0
2024-02-16,07:15:00,DRY,5.25,10.10,3.0,777.00,0.0
2024-02-16,07:20:00,DRY,5.73,10.07,3.0,777.00,0.0
2024-02-16,07:25:00,DRY,5.55,10.10,3.0,777.00,0.0
2024-02-16,07:30:00,DRY,5.17,10.03,3.0,777.67,0.0
2024-02-16,07:35:00,DRY,4.95,10.10,3.0,778.00,0.0
2024-02-16,07:40:00,DRY,5.23,10.30,2.7,778.00,0.0
2024-02-16,07:45:00,DRY,4.75,10.35,3.0,778.00,0.0
2024-02-16,07:50:00,DRY,5.07,10.37,3.0,778.00,0.0
2024-02-16,07:55:00,DRY,4.05,10.30,3.0,778.00,1.0
2024-02-16,08:00:00,DRY,4.60,10.30,3.0,778.00,4.7
2024-02-16,08:05:00,DRY,3.85,10.40,3.0,778.00,8.0
2024-02-16,08:10:00,DRY,4.53,10.47,3.0,778.00,11.3
2024-02-16,08:15:00,DRY,5.40,10.75,3.0,778.00,14.5
2024-02-16,08:20:00,DRY,4.70,10.77,3.0,778.00,17.0
2024-02-16,08:25:00,DRY,4.35,10.75,3.0,778.00,20.5
2024-02-16,08:30:00,DRY,4.70,10.60,3.0,778.00,132.7
2024-02-16,08:35:00,DRY,5.30,10.95,3.0,778.00,159.5
2024-02-16,08:40:00,DRY,5.00,10.87,3.0,778.00,179.0
2024-02-16,08:45:00,DRY,5.15,10.60,3.0,778.00,198.5
2024-02-16,08:50:00,DRY,4.77,10.70,3.3,778.00,219.0
2024-02-16,08:55:00,DRY,4.35,10.90,3.0,778.00,239.5
2024-02-16,09:00:00,DRY,4.63,10.93,3.3,778.00,260.3
2024-02-16,09:05:00,DRY,4.20,11.00,3.5,778.00,281.0
2024-02-16,09:10:00,DRY,3.93,11.13,3.0,778.00,301.3
2024-02-16,09:15:00,DRY,3.90,11.40,3.0,778.00,321.5
2024-02-16,09:20:00,DRY,5.27,11.43,3.3,778.33,341.7
2024-02-16,09:25:00,DRY,5.50,11.75,3.0,778.50,362.0
2024-02-16,09:30:00,DRY,4.53,11.67,3.0,779.00,381.3
2024-02-16,09:35:00,DRY,5.15,11.65,3.5,779.00,401.0
2024-02-16,09:40:00,DRY,6.37,11.70,3.3,779.00,420.0
2024-02-16,09:45:00,DRY,6.95,11.80,3.0,779.00,439.0
2024-02-16,09:50:00,DRY,6.37,11.90,3.3,779.00,459.0
2024-02-16,09:55:00,DRY,4.75,11.90,3.5,779.00,477.5
2024-02-16,10:00:00,DRY,5.63,11.93,3.3,779.00,496.7
2024-02-16,10:05:00,DRY,4.15,12.00,3.5,779.00,515.0
2024-02-16,10:10:00,DRY,4.27,12.00,4.0,779.00,533.0
2024-02-16,10:15:00,DRY,4.00,12.00,4.0,779.00,550.5
2024-02-16,10:20:00,DRY,5.87,12.00,4.0,779.00,567.3
2024-02-16,10:25:00,DRY,4.55,12.15,4.0,779.00,584.0
2024-02-16,10:30:00,DRY,5.63,12.27,4.0,779.00,601.0
2024-02-16,10:35:00,DRY,4.75,12.45,4.0,779.00,617.0
2024-02-16,10:40:00,DRY,4.83,12.53,4.0,779.00,632.0
2024-02-16,10:45:00,DRY,4.10,12.65,4.0,779.00,647.0
2024-02-16,10:50:00,DRY,4.50,12.67,4.0,779.00,662.0
2024-02-16,10:55:00,DRY,5.30,12.70,4.0,779.00,675.5
2024-02-16,11:00:00,DRY,4.00,12.70,4.0,779.00,688.3
2024-02-16,11:05:00,DRY,5.00,12.70,4.0,779.00,702.0
2024-02-16,11:10:00,DRY,4.23,12.77,4.0,779.00,715.0
2024-02-16,11:15:00,DRY,5.30,12.80,4.0,779.00,728.5
2024-02-16,11:20:00,DRY,4.40,13.13,5.3,779.00,740.7
2024-02-16,11:25:00,DRY,3.30,13.45,5.0,779.00,751.5
2024-02-16,11:30:00,DRY,4.37,13.43,4.3,779.00,763.0
2024-02-16,11:35:00,DRY,3.85,13.45,5.0,779.00,773.0
2024-02-16,11:40:00,DRY,4.40,13.60,5.0,779.00,784.3
2024-02-16,11:45:00,DRY,3.40,13.65,4.5,779.00,794.0
2024-02-16,11:50:00,DRY,4.53,13.97,4.0,779.00,798.0
2024-02-16,11:55:00,DRY,5.40,14.00,4.0,779.00,798.0
2024-02-16,12:00:00,DRY,4.33,14.47,4.0,779.00,798.0
2024-02-16,12:05:00,DRY,3.95,14.80,4.0,779.00,798.0
2024-02-16,12:10:00,DRY,3.10,14.73,3.3,779.00,798.0
2024-02-16,12:15:00,DRY,2.65,14.80,3.5,779.00,798.0
2024-02-16,12:20:00,DRY,3.53,15.07,3.3,779.00,798.0
2024-02-16,12:25:00,DRY,3.30,15.35,4.0,779.00,798.0
2024-02-16,12:30:00,DRY,2.43,15.50,3.7,779.00,798.0
2024-02-16,12:35:00,DRY,3.15,15.35,3.5,779.00,798.0
2024-02-16,12:40:00,DRY,2.07,15.43,3.7,779.00,798.0
2024-02-16,12:45:00,DRY,3.60,15.30,5.0,779.00,798.0
2024-02-16,12:50:00,DRY,4.53,15.13,4.3,779.00,798.0
2024-02-16,12:55:00,DRY,2.35,14.95,3.5,779.00,798.0
2024-02-16,13:00:00,DRY,3.33,15.07,4.0,779.00,798.0
2024-02-16,13:05:00,DRY,4.30,15.05,4.0,779.00,798.0
2024-02-16,13:10:00,DRY,3.87,15.00,4.7,779.00,798.0
2024-02-16,13:15:00,DRY,3.40,15.00,4.0,779.00,798.0
2024-02-16,13:20:00,DRY,3.90,15.00,4.3,779.00,798.0
2024-02-16,13:25:00,DRY,5.60,14.85,4.0,779.00,798.0
2024-02-16,13:30:00,DRY,3.05,15.05,4.0,779.00,798.0
2024-02-16,13:35:00,DRY,1.90,15.20,4.0,779.00,798.0
2024-02-16,13:40:00,DRY,4.73,15.10,4.3,779.00,798.0
2024-02-16,13:45:00,DRY,5.50,15.10,4.5,778.50,798.0
2024-02-16,13:50:00,DRY,2.83,15.03,4.0,778.00,798.0
2024-02-16,13:55:00,DRY,1.85,15.15,4.5,778.50,798.0
2024-02-16,14:00:00,DRY,4.07,15.13,4.3,778.00,798.0
2024-02-16,14:05:00,DRY,1.35,15.15,4.0,778.00,798.0
2024-02-16,14:10:00,DRY,2.63,15.40,4.0,778.00,798.0
2024-02-16,14:15:00,DRY,2.45,15.45,5.0,778.00,798.0
2024-02-16,14:20:00,DRY,3.53,15.73,4.3,778.00,798.0
2024-02-16,14:25:00,DRY,3.25,15.65,7.0,778.00,798.0
2024-02-16,14:30:00,DRY,1.93,15.63,9.7,778.00,798.0
2024-02-16,14:35:00,DRY,2.25,15.75,5.5,778.00,798.0
2024-02-16,14:40:00,DRY,1.77,16.13,7.7,778.00,798.0
2024-02-16,14:45:00,DRY,2.70,16.00,5.0,778.00,798.0
2024-02-16,14:50:00,DRY,2.47,15.40,6.0,778.00,798.0
2024-02-16,14:55:00,DRY,2.00,15.65,7.0,778.00,794.5
2024-02-16,15:00:00,DRY,1.50,15.63,7.3,778.00,785.3
2024-02-16,15:05:00,DRY,2.05,15.55,6.0,778.00,777.0
2024-02-16,15:10:00,DRY,2.57,15.47,8.0,778.00,764.0
2024-02-16,15:15:00,DRY,3.15,15.75,7.0,778.00,754.5
2024-02-16,15:20:00,DRY,3.03,15.63,6.0,778.00,744.0
2024-02-16,15:25:00,DRY,3.70,15.60,7.0,778.00,731.5
2024-02-16,15:30:00,DRY,2.83,15.67,5.3,778.00,720.7
2024-02-16,15:35:00,DRY,4.70,15.55,5.0,778.00,709.5
2024-02-16,15:40:00,DRY,3.13,15.17,3.7,778.00,697.7
2024-02-16,15:45:00,DRY,2.50,15.30,4.0,778.00,682.5
2024-02-16,15:50:00,DRY,2.77,15.63,8.0,778.00,667.3
2024-02-16,15:55:00,DRY,2.50,15.75,8.0,778.00,650.5
2024-02-16,16:00:00,DRY,3.03,15.83,6.7,778.00,636.3
2024-02-16,16:05:00,DRY,2.60,15.70,11.0,778.00,620.0
2024-02-16,16:10:00,DRY,2.23,16.00,11.0,778.00,604.3
2024-02-16,16:15:00,DRY,1.60,16.00,10.0,778.00,587.5
2024-02-16,16:20:00,DRY,1.55,15.90,9.5,778.00,571.5
2024-02-16,16:25:00,DRY,3.35,15.95,8.5,778.00,555.0
2024-02-16,16:30:00,DRY,1.47,16.10,6.7,778.00,537.7
2024-02-16,16:35:00,DRY,1.40,16.10,6.5,778.00,519.0
2024-02-16,16:40:00,DRY,2.30,16.17,8.0,778.00,502.3
2024-02-16,16:45:00,DRY,2.20,15.95,5.5,778.00,484.5
2024-02-16,16:50:00,DRY,2.73,15.83,6.3,778.00,466.0
2024-02-16,16:55:00,DRY,3.30,15.75,12.5,778.00,445.5
2024-02-16,17:00:00,DRY,3.45,16.00,9.5,778.00,423.5
2024-02-16,17:05:00,DRY,2.25,15.95,7.5,778.00,408.5
2024-02-16,17:10:00,DRY,2.23,15.93,8.0,778.00,387.7
2024-02-16,17:15:00,DRY,2.75,16.10,7.5,778.00,366.5
2024-02-16,17:20:00,DRY,3.10,15.87,8.0,778.00,347.0
2024-02-16,17:25:00,DRY,4.65,15.90,5.5,778.00,328.0
2024-02-16,17:30:00,DRY,3.90,15.70,7.3,778.00,307.0
2024-02-16,17:35:00,DRY,2.45,15.55,7.5,778.00,286.5
2024-02-16,17:40:00,DRY,3.17,15.50,7.7,778.00,265.7
2024-02-16,17:45:00,DRY,2.50,15.50,6.5,778.00,245.0
2024-02-16,17:50:00,DRY,3.63,15.37,7.3,778.00,224.3
2024-02-16,17:55:00,DRY,3.70,15.30,6.0,778.00,204.0
2024-02-16,18:00:00,DRY,4.03,15.30,6.0,778.00,184.3
2024-02-16,18:05:00,DRY,3.35,15.20,7.0,778.00,163.0
2024-02-16,18:10:00,DRY,3.53,15.17,5.3,778.00,143.0
2024-02-16,18:15:00,DRY,4.95,15.20,5.0,778.00,125.0
2024-02-16,18:20:00,DRY,3.37,15.20,4.7,778.00,105.0
2024-02-16,18:25:00,DRY,2.60,14.95,5.0,778.00,85.0
2024-02-16,18:30:00,DRY,2.17,14.93,4.3,778.00,66.3
2024-02-16,18:35:00,DRY,2.55,14.85,4.0,778.00,48.5
2024-02-16,18:40:00,DRY,5.70,14.80,4.7,778.00,31.0
2024-02-16,18:45:00,DRY,3.15,14.80,4.0,778.00,19.0
2024-02-16,18:50:00,DRY,4.40,14.70,4.0,778.00,15.0